CW0858 Weather Reports


Display with metric or nautical units.
time (UTC)temp
F
wind
direction
speed
MPH
gust
MPH
rain 1hr
in
rain 24hr
in
rain mn
in
humidity
%
barometer
mb
20260507050030 57 0 0.0 3.0 0.00 0.00 0.00 77 1021.0
20260507044528 58 50 0.0 4.0 0.00 0.00 0.00 77 1021.0
20260507043029 58 354 1.0 5.0 0.00 0.00 0.00 76 1020.9
20260507041530 58 68 1.0 5.0 0.00 0.00 0.00 76 1020.8
20260507040029 58 120 1.0 7.0 0.00 0.00 0.00 76 1020.6
20260507034534 59 0 1.0 7.0 0.00 0.00 0.00 75 1020.5
20260507033030 60 27 2.0 5.0 0.00 0.00 0.00 74 1020.1
20260507031527 60 0 0.0 6.0 0.00 0.00 0.00 74 1020.0
20260507030028 61 0 1.0 3.0 0.00 0.00 0.00 73 1019.9
20260507024527 62 11 1.0 6.0 0.00 0.00 0.00 72 1019.7
20260507023030 62 352 1.0 5.0 0.00 0.00 0.00 71 1019.6
20260507021529 63 354 1.0 6.0 0.00 0.00 0.00 71 1019.5
20260507020045 63 351 1.0 4.0 0.00 0.00 0.00 69 1019.6
20260507014531 64 36 4.0 7.0 0.00 0.00 0.00 69 1019.7
20260507013030 65 347 1.0 6.0 0.00 0.00 0.00 68 1019.6
20260507011540 66 26 2.0 7.0 0.00 0.00 0.00 67 1019.5
20260507010033 67 16 3.0 6.0 0.00 0.00 0.00 66 1019.5
20260507004532 67 306 1.0 7.0 0.00 0.00 0.00 67 1019.5
20260507003030 67 335 2.0 10.0 0.00 0.00 0.00 66 1019.4
20260507001600 68 122 3.0 7.0 0.00 0.00 0.00 65 1019.3
20260507000037 69 26 0.0 2.0 0.00 0.00 0.00 63 1019.3
20260506234528 69 0 0.0 2.0 0.00 0.00 0.00 63 1019.2
20260506233030 68 28 0.0 2.0 0.00 0.00 0.00 63 1019.3
20260506231531 68 0 0.0 5.0 0.00 0.00 0.00 64 1019.3
20260506230049 69 0 0.0 3.0 0.00 0.00 0.00 63 1019.5
20260506224530 69 0 0.0 4.0 0.00 0.00 0.00 63 1019.6
20260506223032 68 0 1.0 4.0 0.00 0.00 0.00 63 1019.7
20260506221530 68 137 0.0 4.0 0.00 0.00 0.00 64 1019.7
20260506220035 68 0 0.0 5.0 0.00 0.00 0.00 65 1019.8
20260506214529 68 134 1.0 5.0 0.00 0.00 0.00 64 1019.7
20260506213028 67 173 0.0 3.0 0.00 0.00 0.00 65 1019.7
20260506211528 67 0 0.0 2.0 0.00 0.00 0.00 66 1020.0
20260506210046 66 0 0.0 3.0 0.00 0.00 0.00 68 1020.1
20260506204531 67 0 0.0 2.0 0.00 0.00 0.00 68 1020.2
20260506203030 67 115 1.0 5.0 0.00 0.00 0.00 68 1020.0
20260506201528 66 118 0.0 4.0 0.00 0.00 0.00 70 1020.0
20260506200032 65 114 1.0 4.0 0.00 0.00 0.00 69 1020.2
20260506194530 64 106 1.0 3.0 0.00 0.00 0.00 73 1020.4
20260506193037 63 309 0.0 2.0 0.00 0.00 0.00 73 1020.6
20260506191530 63 0 0.0 2.0 0.00 0.00 0.00 74 1020.6
20260506190031 63 115 1.0 2.0 0.00 0.00 0.00 72 1020.4
20260506184537 64 101 0.0 6.0 0.00 0.00 0.00 73 1020.5
20260506183032 63 122 1.0 6.0 0.00 0.00 0.00 73 1020.2
20260506181538 62 270 0.0 5.0 0.00 0.00 0.00 75 1020.4
20260506180033 61 88 0.0 3.0 0.00 0.00 0.00 79 1020.5
20260506174534 60 0 0.0 2.0 0.00 0.00 0.00 79 1020.6
20260506173029 59 0 0.0 1.0 0.00 0.00 0.00 81 1020.5
20260506171534 59 0 0.0 1.0 0.00 0.00 0.00 82 1020.1
20260506170031 59 127 0.0 1.0 0.00 0.00 0.00 81 1020.2
20260506164545 59 0 0.0 1.0 0.00 0.00 0.00 83 1020.4
20260506163030 58 0 0.0 2.0 0.00 0.00 0.00 83 1020.3
20260506161528 58 0 0.0 2.0 0.00 0.00 0.00 82 1020.1
20260506160030 58 0 0.0 2.0 0.00 0.00 0.00 83 1020.0
20260506154533 57 107 0.0 4.0 0.00 0.00 0.00 84 1019.8
20260506153030 57 131 1.0 3.0 0.00 0.00 0.00 84 1019.4
20260506151530 57 0 0.0 1.0 0.00 0.00 0.00 85 1020.2
20260506150030 57 103 0.0 1.0 0.00 0.00 0.00 85 1020.3
20260506144530 57 0 0.0 1.0 0.00 0.00 0.00 84 1020.1
20260506143037 57 0 0.0 2.0 0.00 0.00 0.00 84 1020.0
20260506141533 57 0 0.0 2.0 0.00 0.00 0.00 84 1019.5
20260506140030 57 124 0.0 3.0 0.00 0.00 0.00 84 1019.4
20260506134527 57 124 0.0 2.0 0.00 0.00 0.00 85 1019.3
20260506133029 57 0 0.0 1.0 0.00 0.00 0.00 84 1019.3
20260506131528 57 0 0.0 2.0 0.00 0.00 0.00 85 1019.1
20260506130028 57 123 0.0 3.0 0.00 0.00 0.00 84 1018.9
20260506124530 57 0 0.0 1.0 0.00 0.00 0.00 85 1018.9
20260506123028 57 0 0.0 0.0 0.00 0.00 0.00 86 1018.7
20260506121529 57 0 0.0 0.0 0.00 0.00 0.00 86 1018.9
20260506120050 58 0 0.0 0.0 0.00 0.00 0.00 85 1018.7
20260506114532 58 0 0.0 0.0 0.00 0.00 0.00 85 1018.7
20260506113028 58 0 0.0 0.0 0.00 0.00 0.00 84 1018.4
20260506111527 58 0 0.0 0.0 0.00 0.00 0.00 84 1018.4
20260506110032 58 0 0.0 0.0 0.00 0.00 0.00 84 1018.1
20260506104538 58 0 0.0 0.0 0.00 0.00 0.00 86 1017.8
20260506103039 58 0 0.0 0.0 0.00 0.00 0.00 86 1017.7
20260506101528 58 0 0.0 0.0 0.00 0.00 0.00 86 1017.5
20260506100027 58 0 0.0 0.0 0.00 0.00 0.00 86 1017.5
20260506094528 59 0 0.0 0.0 0.00 0.00 0.00 86 1017.4
20260506093028 59 0 0.0 0.0 0.00 0.00 0.00 85 1017.1
20260506091528 59 0 0.0 0.0 0.00 0.00 0.00 85 1017.1
20260506090028 59 0 0.0 0.0 0.00 0.00 0.00 84 1017.0
20260506084603 59 0 0.0 0.0 0.00 0.00 0.00 84 1017.0
20260506083028 59 0 0.0 0.0 0.00 0.00 0.00 84 1017.0
20260506081538 59 0 0.0 0.0 0.00 0.00 0.00 83 1017.0
20260506073029 60 0 0.0 0.0 0.00 0.00 0.00 82 1016.7
20260506071532 60 0 0.0 0.0 0.00 0.00 0.00 83 1016.7
20260506061529 59 0 0.0 0.0 0.00 0.00 0.00 82 1016.4